[[{"header":{"parameterUnit":"m.s-1","parameterCategory":2,"la1":30.2991,"la2":30.254,"lo1":-89.0895,"lo2":-89.0444,"dy":0.0017,"dx":0.0017,"nx":28,"ny":28,"refTime":"2025-08-14T21:00:00:Z","depth":"0","parameterNumber":2,"parameterNumberName":"U-component_of_CURRENTS"},"data":[0,0,0,0,0,0,0,0,0,0,0,0,0,0,0,0,0,0,0,0,0,0,0,0,0,0,0,0,0,0,0,0,0,0,0,0,0,0,0,0,0,0,0,0,0,0,0,0,0,0,0,0,0,0,0,0,0,0,0.4447,0.4447,0,0.4457,0.4458,0.4458,0.4415,0.4413,0.4411,0.441,0.433,0.4329,0.4329,0,0,0,0,0,0,0,0,0,0,0,0,0,0.4385,0.4386,0.4447,0.4447,0.4447,0.4457,0.4458,0.4458,0.4415,0.4413,0.4411,0.4409,0.433,0.4329,0.4329,0,0,0,0,0,0,0,0,0,0,0,0,0,0.4409,0.4387,0.4447,0.4424,0.4421,0.4457,0.4458,0.4458,0.4415,0.4413,0.441,0.4408,0.433,0.4329,0.4328,0.4371,0,0,0.4326,0.4325,0,0,0,0,0,0,0,0,0.4407,0.4411,0.4427,0.4425,0.4423,0.4429,0.4406,0.4423,0.4416,0.4422,0.441,0.4407,0.4354,0.4351,0.4365,0.4367,0.4364,0.4326,0.4325,0.4325,0.4324,0,0,0,0,0,0,0,0.4406,0.4411,0.4455,0.4427,0.4424,0.441,0.4412,0.441,0.4402,0.4421,0.4417,0.4413,0.4352,0.4366,0.4362,0.4363,0.4326,0.4325,0.4324,0.4324,0.4331,0.4332,0,0,0,0,0,0,0.4401,0.441,0.4455,0.4455,0.4405,0.4413,0.4415,0.4432,0.4404,0.4397,0.4415,0.4411,0.4369,0.4364,0.4359,0.4373,0.4325,0.4324,0.4323,0.433,0.4331,0.4332,0,0,0,0,0,0,0.44,0.4406,0.4454,0.4428,0.4432,0.4416,0.4437,0.4434,0.4448,0.44,0.4391,0.4431,0.4367,0.436,0.436,0.437,0.4323,0.4322,0.4329,0.433,0.4331,0.4423,0,0,0,0,0,0,0.4398,0.4406,0.4425,0.4428,0.4433,0.4471,0.4439,0.4436,0.4447,0.4442,0.4411,0.4401,0.4364,0.4362,0.4359,0.4368,0.4322,0.4328,0.433,0.4331,0.4419,0.4427,0.4434,0,0,0,0,0,0.4397,0.4435,0.4427,0.4432,0.4459,0.4471,0.4474,0.4456,0.445,0.446,0.4443,0.4402,0.4367,0.4363,0.4359,0.4368,0.4328,0.4329,0.4331,0.4415,0.4425,0.4434,0,0,0,0,0,0,0.4393,0.4434,0.4425,0.4466,0.4463,0.4462,0.4477,0.4472,0.4474,0.4469,0.4428,0.4418,0.4414,0.4387,0.4383,0.4372,0.4335,0.4336,0.44,0.4409,0.4417,0.4406,0.4321,0,0,0,0,0,0.4408,0.4456,0.4464,0.4486,0.4497,0.4494,0.4501,0.449,0.4486,0.4486,0.446,0.4435,0.4424,0.4413,0.4391,0.4405,0.4414,0.4401,0.4409,0.4416,0.4403,0.4435,0.4445,0.4337,0.4337,0.4337,0,0,0.4398,0.4434,0.445,0.449,0.4493,0.4502,0.4493,0.4509,0.4509,0.4477,0.4476,0.4464,0.4433,0.4433,0.4429,0.4411,0.4464,0.4418,0.4424,0.4407,0.4438,0.4448,0.4458,0.4339,0.4338,0.4338,0,0,0.4408,0.445,0.449,0.4497,0.4516,0.4521,0.4529,0.4535,0.4537,0.4545,0.4518,0.4518,0.4496,0.4478,0.4468,0.4509,0.4503,0.4498,0.453,0.4562,0.4572,0.458,0.4668,0.4683,0.4502,0.4502,0.4502,0,0.4393,0.4441,0.4492,0.4517,0.4517,0.453,0.4537,0.4553,0.4549,0.4559,0.4542,0.4536,0.4513,0.4524,0.4531,0.4525,0.4562,0.4503,0.4574,0.4582,0.4589,0.4677,0.4692,0.4507,0.4506,0.4506,0.4505,0,0.4426,0.4445,0.4467,0.4509,0.4524,0.4533,0.4552,0.4573,0.4582,0.4584,0.4601,0.459,0.458,0.4581,0.4568,0.4603,0.4625,0.4585,0.4557,0.4605,0.4695,0.471,0.4514,0.4512,0.451,0.4509,0,0,0.4422,0.4481,0.448,0.4477,0.4518,0.4525,0.456,0.4588,0.4611,0.4618,0.4642,0.464,0.4644,0.4632,0.4627,0.4654,0.4759,0.4644,0.4644,0.4744,0.4886,0.4822,0.4832,0.4738,0.4739,0.4741,0.4954,0,0.4415,0.4449,0.449,0.4482,0.4489,0.4523,0.4549,0.4579,0.4613,0.4643,0.4664,0.4674,0.4663,0.467,0.4701,0.473,0.4791,0.4708,0.4812,0.4816,0.476,0.4842,0.458,0.4738,0.4968,0.497,0.4972,0,0.4425,0.4446,0.4452,0.4464,0.4474,0.4479,0.4531,0.4555,0.4623,0.4651,0.469,0.4708,0.4762,0.4731,0.4843,0.4796,0.4849,0.4879,0.4887,0.4791,0.4775,0.4711,0.4755,0.4633,0.4994,0.4992,0.4991,0,0.4388,0.4409,0.4413,0.4413,0.4446,0.4462,0.4484,0.4552,0.4578,0.4659,0.4689,0.476,0.4794,0.4861,0.4938,0.4901,0.5067,0.5021,0.503,0.503,0.4803,0.4777,0.4733,0.5103,0.5103,0.5102,0.5102,0,0.4365,0.4356,0.439,0.4381,0.4375,0.4424,0.4436,0.4487,0.456,0.4589,0.468,0.4723,0.4822,0.4924,0.4984,0.507,0.5118,0.5055,0.5069,0.4833,0.4809,0.4685,0.4642,0.511,0.5109,0.5107,0.5106,0,0.4308,0.4339,0.4322,0.4348,0.435,0.4342,0.4374,0.4393,0.4488,0.4538,0.4566,0.4719,0.4846,0.4967,0.5103,0.5122,0.5063,0.5228,0.4977,0.4954,0.4789,0.4762,0.4607,0.4481,0.5264,0.5264,0.5263,0,0.4288,0.4277,0.4269,0.4244,0.4247,0.4243,0.4245,0.4334,0.4361,0.4523,0.4542,0.4708,0.4795,0.5012,0.505,0.5176,0.5045,0.5028,0.4873,0.4758,0.474,0.4588,0.4481,0.4656,0.4651,0.4646,0.4643,0,0.4215,0.4211,0.4182,0.414,0.4123,0.4103,0.412,0.4138,0.4261,0.4335,0.446,0.4559,0.4742,0.4738,0.49,0.4934,0.4748,0.4941,0.4855,0.4286,0.408,0.397,0.4604,0.4604,0.4608,0.461,0.4613,0.4614,0.4136,0.4083,0.4045,0.3996,0.3983,0.3962,0.3913,0.397,0.4018,0.4088,0.4282,0.4332,0.4435,0.459,0.4624,0.447,0.4498,0.4329,0.433,0.4209,0.3965,0.4547,0.4526,0.4529,0.4532,0.4534,0.4536,0,0.4001,0.3954,0.3905,0.3835,0.3786,0.3823,0.3818,0.376,0.3771,0.3875,0.3955,0.3966,0.3971,0.4039,0.3994,0.3886,0.3712,0.3786,0.3481,0.3428,0.3969,0.3815,0.3594,0.3594,0.3594,0.3594,0.3594,0.3594,0.3917,0.381,0.3783,0.3657,0.362,0.3502,0.3475,0.343,0.3452,0.3394,0.3355,0.3417,0.3583,0.3635,0.3511,0.3431,0.3203,0.3028,0.3113,0.3467,0.3516,0.3562,0.3405,0.3101,0.3101,0.2358,0.2352,0.2348]},{"header":{"parameterUnit":"m.s-1","parameterCategory":2,"la1":30.2991,"la2":30.254,"lo1":-89.0895,"lo2":-89.0444,"dy":0.0017,"dx":0.0017,"nx":28,"ny":28,"refTime":"2025-08-14T21:00:00:Z","depth":"0","parameterNumber":3,"parameterNumberName":"V-component_of_CURRENTS"},"data":[0,0,0,0,0,0,0,0,0,0,0,0,0,0,0,0,0,0,0,0,0,0,0,0,0,0,0,0,0,0,0,0,0,0,0,0,0,0,0,0,0,0,0,0,0,0,0,0,0,0,0,0,0,0,0,0,0,0,-0.0646,-0.0647,0,-0.0769,-0.0771,-0.0773,-0.0805,-0.0804,-0.0803,-0.0801,-0.0952,-0.0957,-0.0962,0,0,0,0,0,0,0,0,0,0,0,0,0,-0.0473,-0.0476,-0.0646,-0.0647,-0.0648,-0.0769,-0.0771,-0.0774,-0.0806,-0.0804,-0.0802,-0.0801,-0.095,-0.0956,-0.0963,0,0,0,0,0,0,0,0,0,0,0,0,0,-0.0573,-0.0477,-0.0646,-0.0673,-0.0677,-0.0769,-0.0772,-0.0774,-0.0806,-0.0804,-0.0802,-0.08,-0.0948,-0.0956,-0.0964,-0.1054,0,0,-0.0988,-0.0991,0,0,0,0,0,0,0,0,-0.0568,-0.0581,-0.0668,-0.0672,-0.0675,-0.0764,-0.0765,-0.0867,-0.0806,-0.0764,-0.0801,-0.0799,-0.0889,-0.0902,-0.0938,-0.1061,-0.1067,-0.0989,-0.0993,-0.0997,-0.0999,0,0,0,0,0,0,0,-0.0561,-0.0576,-0.0701,-0.0669,-0.0674,-0.0691,-0.0704,-0.0785,-0.0842,-0.0767,-0.0768,-0.0772,-0.0892,-0.0931,-0.0942,-0.1069,-0.0988,-0.0995,-0.1,-0.1003,-0.1139,-0.1138,0,0,0,0,0,0,-0.0533,-0.0569,-0.0697,-0.0704,-0.0608,-0.0695,-0.071,-0.0743,-0.0841,-0.0851,-0.0774,-0.0773,-0.0918,-0.0933,-0.0947,-0.0935,-0.0997,-0.1004,-0.1009,-0.1141,-0.1139,-0.1138,0,0,0,0,0,0,-0.053,-0.0545,-0.0692,-0.0632,-0.0651,-0.07,-0.0737,-0.0746,-0.077,-0.0844,-0.0856,-0.0784,-0.0917,-0.0936,-0.0984,-0.0945,-0.1008,-0.1015,-0.1142,-0.114,-0.1139,-0.099,0,0,0,0,0,0,-0.0525,-0.0544,-0.0569,-0.0632,-0.0653,-0.0715,-0.0739,-0.075,-0.0773,-0.0773,-0.0858,-0.087,-0.0917,-0.0972,-0.0992,-0.0957,-0.1021,-0.1143,-0.1141,-0.1139,-0.0996,-0.0983,-0.0972,0,0,0,0,0,-0.0519,-0.0557,-0.0571,-0.0585,-0.0684,-0.0713,-0.0726,-0.0758,-0.0775,-0.0775,-0.0826,-0.0867,-0.0971,-0.0978,-0.1002,-0.0968,-0.1144,-0.1142,-0.1139,-0.1001,-0.0986,-0.0972,0,0,0,0,0,0,-0.0484,-0.0566,-0.0581,-0.0639,-0.0655,-0.0715,-0.0732,-0.0755,-0.0803,-0.0808,-0.0876,-0.0892,-0.0911,-0.0972,-0.0978,-0.1,-0.1057,-0.1059,-0.0944,-0.093,-0.0918,-0.0877,-0.1028,0,0,0,0,0,-0.0491,-0.0545,-0.0591,-0.0628,-0.064,-0.0687,-0.0709,-0.0725,-0.0769,-0.0789,-0.0836,-0.089,-0.0928,-0.0952,-0.1002,-0.1039,-0.1046,-0.1026,-0.1014,-0.1003,-0.0985,-0.0969,-0.0953,-0.1129,-0.113,-0.113,0,0,-0.0477,-0.0534,-0.0558,-0.0624,-0.0651,-0.0646,-0.0696,-0.0718,-0.07,-0.0802,-0.0805,-0.086,-0.0929,-0.0943,-0.0957,-0.0985,-0.095,-0.1,-0.099,-0.0978,-0.0964,-0.0947,-0.0931,-0.1128,-0.1128,-0.1128,0,0,-0.0464,-0.0532,-0.056,-0.0568,-0.0602,-0.0628,-0.0624,-0.0669,-0.0675,-0.0699,-0.0743,-0.0764,-0.0852,-0.0861,-0.0887,-0.0849,-0.0888,-0.0873,-0.0781,-0.0765,-0.0749,-0.0736,-0.0685,-0.0669,-0.0865,-0.0865,-0.0865,0,-0.044,-0.0485,-0.0559,-0.0561,-0.0551,-0.0605,-0.0579,-0.0601,-0.0645,-0.0638,-0.0673,-0.0739,-0.08,-0.0784,-0.0764,-0.0816,-0.0812,-0.0826,-0.0745,-0.0732,-0.0721,-0.0673,-0.0657,-0.0857,-0.0858,-0.0859,-0.086,0,-0.0431,-0.0445,-0.0452,-0.0476,-0.0475,-0.0466,-0.048,-0.0482,-0.0507,-0.052,-0.0516,-0.059,-0.062,-0.0637,-0.0698,-0.0643,-0.0664,-0.0728,-0.0772,-0.0694,-0.0649,-0.0634,-0.0847,-0.0849,-0.0851,-0.0853,0,0,-0.0417,-0.0444,-0.0439,-0.0408,-0.0425,-0.0413,-0.0385,-0.0367,-0.0331,-0.0371,-0.0318,-0.0381,-0.0422,-0.0452,-0.0515,-0.0505,-0.0419,-0.058,-0.0583,-0.051,-0.0353,-0.0343,-0.0327,-0.0475,-0.0473,-0.0471,-0.0339,0,-0.0372,-0.0352,-0.0379,-0.0304,-0.0275,-0.0289,-0.0247,-0.0233,-0.0243,-0.0209,-0.0254,-0.0247,-0.035,-0.0359,-0.0362,-0.0419,-0.0381,-0.0447,-0.0457,-0.0456,-0.0442,-0.031,-0.0317,-0.0199,-0.0325,-0.0322,-0.0321,0,-0.0342,-0.0329,-0.0265,-0.0201,-0.0188,-0.0148,-0.0083,-0.0052,-0.0026,-0.003,-0.0032,-0.0082,-0.0071,-0.0175,-0.0185,-0.0228,-0.0268,-0.0304,-0.0301,-0.0335,-0.042,-0.0308,-0.0168,-0.035,-0.0299,-0.0301,-0.0302,0,-0.0282,-0.0238,-0.0182,-0.0157,-0.0103,-0.006,-0.0031,0.0006,0.0059,0.0091,0.0133,0.0104,0.0118,0.005,-0.0045,-0.0113,-0.0038,-0.0147,-0.0152,-0.0151,-0.0179,-0.0185,-0.0201,-0.0114,-0.0114,-0.0114,-0.0115,0,-0.0226,-0.0168,-0.0144,-0.0098,0.0003,0.0014,0.0116,0.0141,0.0203,0.0307,0.0232,0.0315,0.0172,0.0174,0.0055,0.0024,0.0045,-0.0085,-0.0105,-0.0125,-0.0127,-0.031,-0.0436,-0.0109,-0.011,-0.0111,-0.0112,0,-0.0153,-0.0152,-0.0059,0.0008,0.0037,0.0117,0.0215,0.0289,0.0331,0.0469,0.0493,0.0507,0.0519,0.0397,0.0326,0.0188,0.0041,0.0112,0.012,0.0098,-0.0122,-0.0239,-0.0253,-0.0326,0.0127,0.0128,0.0129,0,-0.012,-0.007,0.003,0.0097,0.0136,0.0235,0.0308,0.0355,0.0445,0.0606,0.0696,0.0752,0.0838,0.0747,0.0516,0.0374,0.016,0.0238,0.0094,-0.0081,-0.0227,-0.0318,-0.0387,0.0134,0.0135,0.0136,0.0136,0,-0.0022,0.0011,0.0087,0.0216,0.0306,0.0412,0.0519,0.0612,0.0708,0.0856,0.1072,0.1167,0.1081,0.0948,0.0706,0.0552,0.0091,0.0249,0.006,-0.0205,-0.0295,-0.0394,0.0008,0.0143,0.0143,0.0142,0.0142,0.0142,0.0064,0.0132,0.0225,0.0354,0.046,0.0598,0.0715,0.0853,0.1054,0.1317,0.1369,0.1582,0.129,0.0974,0.072,0.0205,0.0188,0.0017,-0.0095,-0.0157,-0.0278,0.0167,0.0266,0.0266,0.0266,0.0266,0.0266,0,0.017,0.0232,0.0356,0.0509,0.0647,0.0674,0.0868,0.1013,0.1291,0.1551,0.1777,0.179,0.1415,0.096,0.028,-0.0083,-0.0261,-0.03,-0.0463,-0.051,-0.0109,-0.0164,-0.0144,-0.0144,-0.0144,-0.0144,-0.0143,-0.0143,0.0229,0.0349,0.04,0.0636,0.0754,0.0952,0.1077,0.1316,0.1537,0.1898,0.2074,0.2175,0.1814,0.0572,-0.0266,-0.0468,-0.0772,-0.0811,-0.094,-0.0733,-0.0714,-0.0696,-0.0777,-0.0886,-0.0887,-0.1308,-0.1313,-0.1316]}],[{"header":{"parameterUnit":"m.s-1","parameterCategory":2,"la1":30.2991,"la2":30.254,"lo1":-89.0895,"lo2":-89.0444,"dy":0.0017,"dx":0.0017,"nx":28,"ny":28,"refTime":"2025-08-14T21:00:00:Z","depth":"2","parameterNumber":2,"parameterNumberName":"U-component_of_CURRENTS"},"data":[0,0,0,0,0,0,0,0,0,0,0,0,0,0,0,0,0,0,0,0,0,0,0,0,0,0,0,0,0,0,0,0,0,0,0,0,0,0,0,0,0,0,0,0,0,0,0,0,0,0,0,0,0,0,0,0,0,0,0.2687,0.2687,0,0.2692,0.2692,0.2692,0.2784,0.2787,0.2789,0.2791,0.2828,0.2827,0.2826,0,0,0,0,0,0,0,0,0,0,0,0,0,0.269,0.269,0.2687,0.2687,0.2687,0.2692,0.2692,0.2692,0.2784,0.2787,0.279,0.2792,0.2829,0.2827,0.2826,0,0,0,0,0,0,0,0,0,0,0,0,0,0.2691,0.269,0.2687,0.2734,0.2738,0.2692,0.2692,0.2692,0.2783,0.2787,0.279,0.2794,0.2829,0.2827,0.2825,0.2741,0,0,0.282,0.2819,0,0,0,0,0,0,0,0,0.2691,0.269,0.2727,0.2731,0.2735,0.2742,0.2707,0.2711,0.2782,0.2765,0.2791,0.2796,0.28,0.2801,0.2792,0.2743,0.2745,0.2819,0.2818,0.2817,0.2817,0,0,0,0,0,0,0,0.2691,0.269,0.2688,0.2727,0.2732,0.2732,0.2737,0.2708,0.2762,0.2767,0.2774,0.2774,0.2803,0.2794,0.2794,0.2745,0.2819,0.2818,0.2817,0.2816,0.294,0.2944,0,0,0,0,0,0,0.269,0.269,0.2688,0.2689,0.2722,0.273,0.2735,0.2736,0.2762,0.277,0.2771,0.2779,0.2795,0.2796,0.2796,0.2946,0.2817,0.2816,0.2815,0.2935,0.2941,0.2946,0,0,0,0,0,0,0.269,0.269,0.2688,0.269,0.2691,0.2726,0.2726,0.2734,0.2762,0.2765,0.2774,0.2797,0.2798,0.2798,0.2825,0.2939,0.2815,0.2813,0.293,0.2937,0.2943,0.3087,0,0,0,0,0,0,0.269,0.269,0.2687,0.269,0.269,0.2698,0.2723,0.2731,0.2755,0.2766,0.2788,0.2794,0.2801,0.2828,0.2824,0.2934,0.2812,0.2925,0.2933,0.2941,0.3076,0.3098,0.3116,0,0,0,0,0,0.269,0.2661,0.2686,0.2686,0.2686,0.2699,0.27,0.2736,0.2753,0.2773,0.28,0.2795,0.2882,0.2827,0.2821,0.2935,0.2921,0.2931,0.294,0.3068,0.3093,0.3115,0,0,0,0,0,0,0.2678,0.2668,0.2696,0.2673,0.2708,0.2716,0.2721,0.274,0.277,0.2781,0.2796,0.2803,0.2897,0.2873,0.2813,0.3003,0.2921,0.293,0.3021,0.3044,0.3064,0.3049,0.281,0,0,0,0,0,0.2668,0.2632,0.2666,0.2651,0.2675,0.2702,0.2708,0.2733,0.2755,0.2773,0.281,0.2856,0.2921,0.2945,0.2983,0.3024,0.2994,0.3114,0.3134,0.315,0.314,0.3216,0.324,0.2978,0.2978,0.2978,0,0,0.2658,0.2645,0.2631,0.2644,0.2672,0.2741,0.2717,0.2733,0.2807,0.2765,0.2877,0.2909,0.2948,0.305,0.3091,0.3045,0.3205,0.3163,0.3176,0.3156,0.3228,0.3253,0.3276,0.2985,0.2984,0.2983,0,0,0.2652,0.2625,0.2634,0.2676,0.2714,0.2735,0.2753,0.2799,0.2844,0.2918,0.2956,0.3023,0.3108,0.3166,0.3204,0.3331,0.331,0.3397,0.3472,0.3548,0.3569,0.3587,0.3549,0.3563,0.3402,0.3402,0.3402,0,0.2631,0.2661,0.2643,0.2709,0.2728,0.2756,0.2812,0.2876,0.2935,0.298,0.2988,0.3156,0.3168,0.3306,0.3381,0.3374,0.3387,0.3376,0.3571,0.3588,0.3604,0.3561,0.3575,0.341,0.3409,0.3409,0.3408,0,0.2736,0.2724,0.2735,0.2823,0.2854,0.2875,0.2969,0.3029,0.3077,0.316,0.3297,0.3317,0.3408,0.3472,0.3464,0.3622,0.3581,0.3588,0.3501,0.3639,0.3585,0.3596,0.3422,0.3419,0.3417,0.3415,0,0,0.2673,0.2774,0.276,0.2812,0.2887,0.2925,0.304,0.3144,0.3262,0.3354,0.3467,0.3601,0.3612,0.3651,0.3666,0.3739,0.3843,0.3728,0.3728,0.3669,0.3961,0.3861,0.3861,0.392,0.3924,0.3927,0.3863,0,0.2724,0.2842,0.2853,0.2943,0.3013,0.304,0.3169,0.3283,0.3379,0.3519,0.3569,0.3717,0.3692,0.3744,0.3808,0.3835,0.3888,0.3854,0.3852,0.3849,0.3729,0.3878,0.3581,0.3497,0.3873,0.3875,0.3876,0,0.2791,0.2855,0.2955,0.3013,0.3047,0.3128,0.3266,0.3378,0.3578,0.3656,0.3767,0.3837,0.3918,0.3894,0.3972,0.3969,0.3975,0.3991,0.399,0.385,0.3773,0.343,0.3501,0.3893,0.3892,0.3891,0.3889,0,0.2781,0.2858,0.2921,0.2966,0.3118,0.3154,0.3233,0.3439,0.3533,0.3746,0.3822,0.3956,0.3976,0.4049,0.4057,0.4044,0.4138,0.4101,0.4004,0.3991,0.3706,0.3663,0.4191,0.4191,0.4191,0.4191,0.4191,0,0.278,0.2821,0.294,0.3005,0.3115,0.32,0.3336,0.3462,0.3617,0.3739,0.3883,0.3948,0.4041,0.4094,0.4101,0.4068,0.4159,0.4026,0.4002,0.3744,0.3708,0.4029,0.4012,0.4188,0.4189,0.419,0.419,0,0.2746,0.2832,0.2918,0.3064,0.3116,0.3209,0.3343,0.3469,0.3623,0.374,0.3798,0.394,0.4002,0.4073,0.4153,0.4083,0.4106,0.4089,0.3726,0.3664,0.3869,0.386,0.3914,0.3911,0.3908,0.3906,0.3904,0,0.2754,0.2788,0.2941,0.303,0.3087,0.3225,0.3333,0.3473,0.355,0.3715,0.3734,0.3862,0.3882,0.3932,0.3916,0.3899,0.4047,0.3625,0.3551,0.3886,0.3858,0.3853,0.3848,0.3192,0.3185,0.3179,0.3174,0,0.2726,0.276,0.2852,0.3015,0.3121,0.321,0.332,0.3345,0.348,0.3542,0.3568,0.3599,0.3661,0.3511,0.3554,0.3517,0.36,0.3493,0.3987,0.3333,0.3209,0.318,0.3198,0.3118,0.3123,0.3128,0.3131,0.3133,0.2692,0.2738,0.2837,0.2969,0.3069,0.3096,0.3078,0.3142,0.3141,0.3119,0.3273,0.321,0.3263,0.3128,0.3057,0.3028,0.3253,0.3124,0.3142,0.3166,0.312,0.3002,0.2854,0.2858,0.2862,0.2865,0.2867,0,0.2665,0.2722,0.2804,0.2906,0.287,0.2996,0.2996,0.2891,0.2763,0.2844,0.2813,0.2588,0.2505,0.26,0.2444,0.2443,0.2406,0.2371,0.2303,0.2361,0.2412,0.2326,0.185,0.1847,0.1843,0.1841,0,0,0.2681,0.27,0.2707,0.2617,0.2689,0.2598,0.2531,0.2395,0.2358,0.2209,0.2185,0.2354,0.249,0.2123,0.2091,0.1944,0.213,0.1868,0.2688,0.2665,0.2711,0.2856,0.2791,0,0,0,0,0]},{"header":{"parameterUnit":"m.s-1","parameterCategory":2,"la1":30.2991,"la2":30.254,"lo1":-89.0895,"lo2":-89.0444,"dy":0.0017,"dx":0.0017,"nx":28,"ny":28,"refTime":"2025-08-14T21:00:00:Z","depth":"2","parameterNumber":3,"parameterNumberName":"V-component_of_CURRENTS"},"data":[0,0,0,0,0,0,0,0,0,0,0,0,0,0,0,0,0,0,0,0,0,0,0,0,0,0,0,0,0,0,0,0,0,0,0,0,0,0,0,0,0,0,0,0,0,0,0,0,0,0,0,0,0,0,0,0,0,0,0.037,0.0369,0,0.0329,0.0328,0.0328,0.0251,0.0249,0.0248,0.0246,0.0214,0.0215,0.0216,0,0,0,0,0,0,0,0,0,0,0,0,0,0.0338,0.034,0.037,0.0369,0.0368,0.0329,0.0328,0.0328,0.0252,0.0249,0.0247,0.0245,0.0214,0.0215,0.0216,0,0,0,0,0,0,0,0,0,0,0,0,0,0.0333,0.034,0.037,0.0322,0.0318,0.0329,0.0328,0.0328,0.0252,0.0249,0.0247,0.0244,0.0214,0.0215,0.0216,0.0278,0,0,0.022,0.022,0,0,0,0,0,0,0,0,0.0334,0.0335,0.033,0.0326,0.032,0.0289,0.0305,0.0311,0.0253,0.0281,0.0246,0.0243,0.024,0.0239,0.0242,0.0277,0.0275,0.022,0.0221,0.0221,0.0222,0,0,0,0,0,0,0,0.0334,0.0336,0.0357,0.033,0.0323,0.0288,0.0285,0.0306,0.0279,0.0278,0.0271,0.0262,0.0237,0.0241,0.0241,0.0275,0.022,0.0221,0.0222,0.0222,0.0272,0.0273,0,0,0,0,0,0,0.0338,0.0337,0.0358,0.0355,0.0316,0.0291,0.0288,0.0305,0.0278,0.027,0.0265,0.0259,0.024,0.0239,0.0239,0.0281,0.0221,0.0222,0.0223,0.0271,0.0272,0.0273,0,0,0,0,0,0,0.0338,0.0342,0.036,0.034,0.0339,0.0294,0.0314,0.0305,0.0289,0.0267,0.026,0.0254,0.0238,0.0237,0.0262,0.0279,0.0223,0.0224,0.0271,0.0272,0.0272,0.0383,0,0,0,0,0,0,0.0338,0.0343,0.0357,0.0342,0.0341,0.0372,0.0316,0.0306,0.0287,0.0279,0.0257,0.0252,0.0236,0.026,0.0263,0.028,0.0225,0.027,0.0271,0.0272,0.0379,0.0388,0.0395,0,0,0,0,0,0.0338,0.0381,0.0359,0.036,0.0363,0.0373,0.0371,0.033,0.0289,0.0302,0.0286,0.0251,0.0267,0.0264,0.0267,0.0284,0.027,0.0271,0.0272,0.0375,0.0386,0.0395,0,0,0,0,0,0,0.0364,0.0377,0.0351,0.0392,0.0379,0.0359,0.0372,0.0333,0.0331,0.0322,0.0286,0.0283,0.0306,0.0281,0.0278,0.0295,0.0252,0.0254,0.0329,0.0339,0.0347,0.0363,0.0226,0,0,0,0,0,0.0379,0.042,0.0404,0.0431,0.0437,0.04,0.0396,0.0367,0.0359,0.0352,0.0332,0.0313,0.032,0.0317,0.032,0.035,0.0294,0.035,0.0359,0.0366,0.0378,0.0304,0.0307,0.0277,0.0277,0.0277,0,0,0.0387,0.0404,0.0418,0.0439,0.0433,0.0451,0.0393,0.0401,0.0408,0.0356,0.0372,0.0354,0.0335,0.0364,0.0368,0.0342,0.0346,0.0368,0.0375,0.0382,0.0306,0.0309,0.0311,0.0278,0.0278,0.0277,0,0,0.0444,0.0452,0.0506,0.0506,0.0506,0.0492,0.0491,0.0473,0.0462,0.0482,0.0439,0.0436,0.0439,0.0429,0.0425,0.048,0.0398,0.0462,0.0518,0.0447,0.0449,0.045,0.0388,0.0383,0.0459,0.0459,0.0459,0,0.0456,0.0513,0.0516,0.0559,0.0568,0.0512,0.0552,0.0543,0.0525,0.0536,0.0498,0.0494,0.0473,0.0504,0.0515,0.0502,0.0442,0.0489,0.0459,0.0458,0.0457,0.0394,0.0386,0.0465,0.0464,0.0463,0.0463,0,0.0537,0.0576,0.0611,0.0652,0.0667,0.0692,0.0679,0.0683,0.0655,0.0635,0.0654,0.0624,0.061,0.0599,0.058,0.0571,0.0525,0.0484,0.0438,0.0467,0.0398,0.0389,0.0472,0.0471,0.0469,0.0468,0,0,0.0588,0.0659,0.0669,0.0697,0.0717,0.0737,0.0777,0.08,0.0817,0.0784,0.0794,0.08,0.0749,0.0739,0.0695,0.0639,0.0584,0.0562,0.0556,0.051,0.0422,0.0391,0.0377,0.0526,0.0525,0.0524,0.0378,0,0.0648,0.076,0.0774,0.0841,0.0893,0.0872,0.0909,0.0916,0.0914,0.0904,0.0859,0.0846,0.081,0.0786,0.0734,0.0624,0.0562,0.0627,0.0393,0.0386,0.0362,0.0366,0.0387,0.0258,0.0368,0.0367,0.0366,0,0.0725,0.079,0.0904,0.0952,0.0971,0.0987,0.1043,0.1067,0.1055,0.105,0.1029,0.096,0.0903,0.083,0.0679,0.0715,0.0582,0.0486,0.0476,0.0404,0.0337,0.0243,0.0236,0.0348,0.035,0.0351,0.0352,0,0.079,0.0872,0.0974,0.0991,0.1045,0.1074,0.108,0.111,0.1149,0.1116,0.1122,0.1036,0.0977,0.0819,0.0644,0.0637,0.0442,0.0399,0.0252,0.0248,0.02,0.0194,0.0264,0.0264,0.0265,0.0265,0.0265,0,0.0876,0.0932,0.0998,0.1044,0.1121,0.1129,0.1198,0.1207,0.1217,0.1262,0.1182,0.1183,0.0964,0.0832,0.0654,0.0441,0.0447,0.0266,0.0208,0.0239,0.0239,0.0264,0.0266,0.0259,0.0261,0.0262,0.0263,0,0.0947,0.1002,0.109,0.1149,0.1165,0.1215,0.1252,0.1296,0.1311,0.1358,0.1338,0.1264,0.11,0.0889,0.0617,0.0466,0.0249,0.0162,0.0224,0.0176,0.0094,0.0103,-0.0026,-0.0028,-0.003,-0.0032,-0.0033,0,0.1003,0.1072,0.1163,0.1213,0.1235,0.1291,0.1333,0.1346,0.1396,0.1425,0.1444,0.1306,0.1224,0.085,0.054,0.0216,0.0203,0.0027,0.0021,0.0108,0.0064,0.0076,0.0088,-0.0005,-0.0006,-0.0007,-0.0008,0,0.1078,0.1114,0.1181,0.1287,0.134,0.1427,0.1468,0.1517,0.1547,0.1574,0.1586,0.151,0.1179,0.0856,0.0433,0.0224,0.0082,-0.0002,0.0052,0.0078,0.0118,0.0078,0.009,-0.0015,-0.0014,-0.0014,-0.0013,-0.0013,0.1109,0.116,0.1247,0.1338,0.1421,0.1536,0.158,0.1629,0.1696,0.1705,0.1664,0.1545,0.1227,0.0661,0.0334,-0.0003,0.0006,-0.0115,-0.0109,-0.0102,-0.0062,-0.0026,-0.0178,-0.0178,-0.0178,-0.0179,-0.0179,0,0.1134,0.1186,0.1281,0.1393,0.1477,0.1526,0.1654,0.168,0.1727,0.1734,0.1693,0.137,0.1031,0.0684,0.0175,-0.0128,-0.0136,-0.0216,-0.0148,-0.0139,-0.0132,-0.0089,-0.0215,-0.0216,-0.0217,-0.0217,0,0,0.1153,0.1234,0.128,0.1411,0.1476,0.1576,0.1643,0.1697,0.1725,0.168,0.1597,0.1489,0.1101,0.0733,0.034,0.0063,0.0028,0.0003,0.006,0.0194,0.0206,-0.0051,0.0027,0,0,0,0,0]}],[{"header":{"parameterUnit":"m.s-1","parameterCategory":2,"la1":30.2991,"la2":30.254,"lo1":-89.0895,"lo2":-89.0444,"dy":0.0017,"dx":0.0017,"nx":28,"ny":28,"refTime":"2025-08-14T21:00:00:Z","depth":"4","parameterNumber":2,"parameterNumberName":"U-component_of_CURRENTS"},"data":[0,0,0,0,0,0,0,0,0,0,0,0,0,0,0,0,0,0,0,0,0,0,0,0,0,0,0,0,0,0,0,0,0,0,0,0,0,0,0,0,0,0,0,0,0,0,0,0,0,0,0,0,0,0,0,0,0,0,0.1255,0.1255,0,0.1276,0.1277,0.1277,0.1305,0.1305,0.1306,0.1307,0.1351,0.1352,0.1353,0,0,0,0,0,0,0,0,0,0,0,0,0,0.1251,0.125,0.1255,0.1255,0.1255,0.1276,0.1277,0.1277,0.1305,0.1305,0.1306,0.1307,0.1351,0.1352,0.1353,0,0,0,0,0,0,0,0,0,0,0,0,0,0.1259,0.125,0.1255,0.1273,0.1275,0.1276,0.1277,0.1277,0.1305,0.1306,0.1306,0.1307,0.1351,0.1352,0.1353,0.134,0,0,0.1356,0.1356,0,0,0,0,0,0,0,0,0.1258,0.1259,0.127,0.1272,0.1274,0.129,0.1292,0.13,0.1304,0.1292,0.1307,0.1308,0.1333,0.1336,0.1335,0.1342,0.1344,0.1356,0.1356,0.1357,0.1357,0,0,0,0,0,0,0,0.1258,0.1258,0.1262,0.127,0.1273,0.1285,0.1287,0.1293,0.1306,0.1293,0.1295,0.13,0.1335,0.1334,0.1337,0.1345,0.1356,0.1357,0.1357,0.1358,0.145,0.1452,0,0,0,0,0,0,0.1256,0.1257,0.1261,0.1262,0.127,0.1285,0.1287,0.1283,0.1306,0.1311,0.1299,0.1301,0.1332,0.1336,0.1338,0.1407,0.1357,0.1358,0.1358,0.1448,0.1451,0.1453,0,0,0,0,0,0,0.1256,0.1256,0.126,0.1262,0.1264,0.1284,0.1279,0.1283,0.1315,0.1311,0.1316,0.1331,0.1333,0.1337,0.1365,0.1406,0.1358,0.1359,0.1446,0.1449,0.1452,0.1491,0,0,0,0,0,0,0.1256,0.1255,0.1267,0.1262,0.1264,0.1278,0.1279,0.1283,0.1315,0.1318,0.1339,0.1342,0.1334,0.1364,0.1366,0.1406,0.136,0.1444,0.1447,0.1451,0.1487,0.1495,0.1501,0,0,0,0,0,0.1255,0.1244,0.1267,0.1269,0.1273,0.1278,0.1281,0.1297,0.1316,0.1329,0.1345,0.1343,0.1389,0.1365,0.1368,0.1409,0.1442,0.1446,0.145,0.1484,0.1493,0.1501,0,0,0,0,0,0,0.1252,0.1247,0.1271,0.1263,0.1287,0.1284,0.1293,0.1316,0.1338,0.1352,0.1353,0.1356,0.1396,0.14,0.1374,0.145,0.1422,0.1427,0.1447,0.1455,0.1462,0.1473,0.136,0,0,0,0,0,0.1258,0.1254,0.1264,0.1271,0.1275,0.1298,0.1309,0.1329,0.1341,0.1354,0.1379,0.1402,0.141,0.1431,0.1439,0.1476,0.1496,0.1511,0.1518,0.1524,0.1537,0.1594,0.1607,0.1467,0.1467,0.1467,0,0,0.1262,0.1262,0.1262,0.1273,0.1286,0.1301,0.1307,0.133,0.1366,0.1354,0.1416,0.1421,0.1423,0.1459,0.1481,0.1473,0.1577,0.153,0.1534,0.1544,0.16,0.1614,0.1626,0.147,0.1469,0.1469,0,0,0.1254,0.1266,0.1259,0.1279,0.1309,0.1321,0.1339,0.1368,0.1403,0.1451,0.1452,0.1492,0.1517,0.1534,0.1538,0.1596,0.1602,0.1603,0.1656,0.1712,0.1724,0.1734,0.1781,0.1795,0.1617,0.1618,0.1618,0,0.1256,0.1263,0.1265,0.1274,0.1301,0.1335,0.1358,0.1387,0.1438,0.1474,0.1481,0.1546,0.1557,0.1595,0.1615,0.1614,0.1636,0.1617,0.172,0.1731,0.1742,0.1787,0.1802,0.162,0.162,0.1619,0.1619,0,0.1245,0.1272,0.127,0.1296,0.1326,0.135,0.1393,0.1447,0.1499,0.1534,0.1606,0.1624,0.1673,0.168,0.1661,0.174,0.1728,0.1711,0.1695,0.1758,0.1802,0.1817,0.1623,0.1623,0.1622,0.1621,0,0,0.1192,0.1246,0.1253,0.1295,0.1348,0.137,0.1435,0.1497,0.1553,0.1618,0.1696,0.1725,0.176,0.1769,0.1772,0.1816,0.1909,0.1799,0.18,0.1838,0.2028,0.1869,0.187,0.1902,0.1905,0.1907,0.203,0,0.1191,0.1211,0.1253,0.132,0.134,0.1414,0.1467,0.1539,0.1608,0.1692,0.174,0.1808,0.1786,0.1829,0.187,0.19,0.1951,0.1877,0.1968,0.1971,0.1816,0.1883,0.1917,0.2041,0.2045,0.2048,0.2049,0,0.1166,0.1195,0.1234,0.1346,0.1363,0.142,0.1535,0.16,0.1705,0.1758,0.1841,0.1884,0.1978,0.1948,0.2053,0.2005,0.2029,0.2042,0.2047,0.1894,0.184,0.1966,0.2077,0.2075,0.2073,0.2071,0.2069,0,0.1112,0.1195,0.1232,0.1263,0.1368,0.1438,0.1522,0.1628,0.1702,0.1834,0.1896,0.199,0.2082,0.2119,0.216,0.2126,0.2252,0.2216,0.2095,0.2085,0.2173,0.216,0.2294,0.2294,0.2294,0.2294,0.2293,0,0.1076,0.1118,0.1222,0.1246,0.133,0.1432,0.1553,0.1629,0.1767,0.1847,0.1948,0.2016,0.2131,0.2209,0.2209,0.2198,0.2309,0.2119,0.2109,0.2187,0.2175,0.2184,0.2169,0.2298,0.2297,0.2296,0.2295,0,0.1003,0.1052,0.1112,0.1244,0.1302,0.137,0.1579,0.1645,0.1786,0.1904,0.196,0.2099,0.219,0.2259,0.2349,0.2269,0.2269,0.2235,0.2331,0.2322,0.2055,0.2042,0.2125,0.2121,0.2117,0.2114,0.2111,0,0.0962,0.0978,0.1104,0.1142,0.1215,0.1358,0.1437,0.1622,0.1702,0.1919,0.1945,0.2115,0.218,0.219,0.2255,0.2265,0.2221,0.2217,0.2113,0.2057,0.2041,0.2033,0.2025,0.2105,0.2104,0.2103,0.2102,0,0.0907,0.0945,0.1004,0.1076,0.1163,0.1255,0.1409,0.147,0.167,0.1813,0.1905,0.1966,0.2061,0.211,0.2143,0.2128,0.2214,0.2176,0.2183,0.2085,0.2034,0.2019,0.2016,0.2089,0.209,0.2092,0.2092,0,0.0878,0.0885,0.0952,0.1024,0.1105,0.1138,0.1238,0.1363,0.1477,0.1724,0.1753,0.19,0.2055,0.204,0.2053,0.2045,0.2002,0.1919,0.1939,0.1954,0.1832,0.1737,0.1708,0,0,0,0,0,0.0833,0.0832,0.0899,0.0948,0.1024,0.1077,0.1203,0.1302,0.1513,0.1529,0.1652,0.1724,0.1785,0.1855,0.1809,0.1947,0.1989,0.188,0.1899,0.2015,0.203,0.1896,0,0,0,0,0,0,0.079,0.0823,0.0869,0.0895,0.0927,0.0987,0.1065,0.1187,0.1225,0.1434,0.1476,0.1619,0.1696,0.1809,0.1784,0.1801,0.1772,0.1977,0.1972,0.2006,0.202,0.2032,0.19,0,0,0,0,0]},{"header":{"parameterUnit":"m.s-1","parameterCategory":2,"la1":30.2991,"la2":30.254,"lo1":-89.0895,"lo2":-89.0444,"dy":0.0017,"dx":0.0017,"nx":28,"ny":28,"refTime":"2025-08-14T21:00:00:Z","depth":"4","parameterNumber":3,"parameterNumberName":"V-component_of_CURRENTS"},"data":[0,0,0,0,0,0,0,0,0,0,0,0,0,0,0,0,0,0,0,0,0,0,0,0,0,0,0,0,0,0,0,0,0,0,0,0,0,0,0,0,0,0,0,0,0,0,0,0,0,0,0,0,0,0,0,0,0,0,0.0319,0.032,0,0.0313,0.0313,0.0312,0.0304,0.0304,0.0304,0.0304,0.0272,0.0271,0.027,0,0,0,0,0,0,0,0,0,0,0,0,0,0.0298,0.0299,0.0319,0.032,0.032,0.0313,0.0313,0.0312,0.0304,0.0304,0.0304,0.0305,0.0273,0.0271,0.027,0,0,0,0,0,0,0,0,0,0,0,0,0,0.0299,0.0299,0.0319,0.0317,0.0317,0.0313,0.0313,0.0312,0.0304,0.0304,0.0304,0.0305,0.0273,0.0272,0.027,0.0258,0,0,0.0266,0.0265,0,0,0,0,0,0,0,0,0.0299,0.0299,0.0317,0.0317,0.0317,0.0312,0.0294,0.0294,0.0304,0.0306,0.0304,0.0305,0.0285,0.0282,0.0277,0.0256,0.0255,0.0266,0.0265,0.0264,0.0264,0,0,0,0,0,0,0,0.0299,0.0299,0.0314,0.0317,0.0317,0.0307,0.0307,0.0293,0.0292,0.0306,0.0306,0.0309,0.0284,0.0279,0.0277,0.0255,0.0266,0.0264,0.0263,0.0263,0.0223,0.0223,0,0,0,0,0,0,0.0306,0.0299,0.0314,0.0314,0.0311,0.0308,0.0308,0.0311,0.0293,0.0291,0.0309,0.0309,0.0281,0.0278,0.0275,0.0272,0.0264,0.0263,0.0262,0.0223,0.0223,0.0223,0,0,0,0,0,0,0.0306,0.0308,0.0315,0.0309,0.0309,0.0308,0.0312,0.0311,0.0313,0.0296,0.0293,0.0314,0.0281,0.0277,0.0272,0.027,0.0262,0.0261,0.0223,0.0223,0.0223,0.0257,0,0,0,0,0,0,0.0305,0.0307,0.0315,0.0309,0.031,0.0327,0.0312,0.0311,0.0316,0.0316,0.0299,0.0296,0.0281,0.0274,0.0271,0.0268,0.026,0.0224,0.0223,0.0223,0.0256,0.0258,0.026,0,0,0,0,0,0.0304,0.0316,0.0316,0.0318,0.032,0.0328,0.0327,0.0325,0.0317,0.0325,0.031,0.0297,0.0269,0.0274,0.0269,0.0266,0.0224,0.0223,0.0223,0.0255,0.0258,0.026,0,0,0,0,0,0,0.031,0.0317,0.0316,0.0329,0.0335,0.0328,0.0339,0.033,0.0324,0.0324,0.03,0.0296,0.0288,0.0272,0.0278,0.0252,0.0242,0.024,0.0268,0.027,0.0271,0.0283,0.0259,0,0,0,0,0,0.0316,0.0327,0.0331,0.0342,0.035,0.0344,0.0347,0.0345,0.0338,0.0336,0.0322,0.0302,0.028,0.0274,0.0258,0.0248,0.0214,0.024,0.0242,0.0243,0.0249,0.0191,0.0188,0.0221,0.0221,0.0221,0,0,0.0321,0.0327,0.0333,0.0344,0.035,0.0365,0.0346,0.0359,0.0363,0.0332,0.0337,0.0312,0.028,0.0268,0.0262,0.0257,0.0215,0.0243,0.0244,0.0249,0.019,0.0187,0.0184,0.0221,0.0221,0.0221,0,0,0.0345,0.0346,0.0369,0.0379,0.0394,0.0386,0.0393,0.0393,0.0388,0.0386,0.0357,0.0335,0.0314,0.0285,0.0267,0.0267,0.0227,0.0259,0.0277,0.0221,0.0217,0.0214,0.0164,0.0156,0.0259,0.0259,0.0259,0,0.0352,0.0383,0.0377,0.0406,0.0418,0.0399,0.0427,0.0415,0.0409,0.0399,0.0396,0.0343,0.032,0.0284,0.0284,0.0271,0.0234,0.0274,0.0223,0.0219,0.0215,0.0165,0.0156,0.026,0.026,0.026,0.026,0,0.0399,0.0424,0.0441,0.0467,0.0474,0.0496,0.0484,0.0479,0.0464,0.0445,0.0417,0.038,0.0349,0.0329,0.0309,0.0266,0.0247,0.0232,0.022,0.0214,0.0161,0.0151,0.0263,0.0262,0.0262,0.0261,0,0,0.0414,0.0466,0.0474,0.05,0.0512,0.0523,0.0521,0.0512,0.0506,0.0479,0.0466,0.0415,0.039,0.0367,0.0329,0.0277,0.0217,0.0249,0.0245,0.0204,0.0092,0.0089,0.0077,0.019,0.0188,0.0187,0.0065,0,0.0457,0.0526,0.0533,0.0583,0.0616,0.0595,0.0595,0.0575,0.0547,0.0526,0.0463,0.0444,0.0404,0.0395,0.0333,0.025,0.0192,0.0251,0.0101,0.0097,0.0097,0.0066,0.0183,0.0058,0.0055,0.0053,0.0052,0,0.0501,0.0545,0.0615,0.0647,0.066,0.0681,0.0672,0.0672,0.0619,0.0596,0.0548,0.0502,0.0431,0.0402,0.0246,0.0286,0.0196,0.0123,0.0116,0.0096,0.0074,0.0064,0.0033,0.0035,0.0036,0.0037,0.0039,0,0.0523,0.059,0.0651,0.0669,0.0705,0.0724,0.0734,0.07,0.0704,0.0651,0.0639,0.0539,0.0507,0.0373,0.0229,0.0236,0.0049,0.0039,-0.0055,-0.0057,-0.0031,-0.0026,-0.0079,-0.0079,-0.0078,-0.0078,-0.0078,0,0.0559,0.0604,0.0676,0.0715,0.0772,0.0778,0.0823,0.0797,0.0782,0.0779,0.0694,0.0658,0.0499,0.0374,0.0232,0.0056,0.0047,-0.0059,-0.0092,-0.0014,-0.0006,-0.0039,-0.0032,-0.0083,-0.0081,-0.0081,-0.008,0,0.0572,0.0621,0.0691,0.0762,0.0793,0.0833,0.0903,0.0916,0.0896,0.0888,0.088,0.0752,0.0587,0.0408,0.0188,0.0078,-0.0099,-0.0161,-0.0064,-0.0088,-0.0168,-0.0158,-0.0274,-0.0276,-0.0277,-0.0277,-0.0278,0,0.0587,0.0632,0.0737,0.0783,0.0828,0.0907,0.0952,0.0972,0.098,0.0932,0.0911,0.0778,0.067,0.0354,0.0166,-0.0109,-0.0144,-0.0229,-0.0201,-0.017,-0.019,-0.0179,-0.0168,-0.028,-0.028,-0.028,-0.0281,0,0.0612,0.0652,0.0715,0.0814,0.0886,0.0962,0.1026,0.105,0.105,0.104,0.093,0.0774,0.0585,0.0349,0.0141,-0.0058,-0.017,-0.0241,-0.0239,-0.0213,-0.0178,-0.0194,-0.0183,-0.0284,-0.0284,-0.0283,-0.0283,0,0.0628,0.0664,0.0746,0.0829,0.0912,0.0973,0.1025,0.1035,0.1054,0.0999,0.0961,0.0762,0.0656,0.0373,0.017,-0.0014,-0.0057,-0.0108,-0.0115,-0.0113,-0.0026,0.0045,-0.0029,0,0,0,0,0,0.0631,0.0671,0.0749,0.083,0.0908,0.0962,0.1037,0.1075,0.1095,0.102,0.0995,0.0812,0.0524,0.0394,0.0207,0.0149,-0.0089,-0.0075,-0.0151,-0.0304,-0.03,-0.0226,0,0,0,0,0,0,0.0629,0.0699,0.074,0.0816,0.087,0.0952,0.101,0.1031,0.099,0.0982,0.0826,0.0763,0.0478,0.0623,0.0199,0.0144,0.0071,-0.0207,-0.0211,-0.0306,-0.0303,-0.0299,-0.0221,0,0,0,0,0]}]]